This is the latest recevied weather packets stored in our database for station/object IW9DKU-3. If no packets are shown the sender has not sent any weather packets the latest 1 day(s).
| Time | Temp. | Humidity | Pressure | Rain* | Wind** | Luminosity | Snow |
|---|---|---|---|---|---|---|---|
| 1788605874 | 30° C | 37% | 1029.6 hPa | - | - | - | - |
| 1788604670 | 30° C | 37% | 1029.7 hPa | - | - | - | - |
| 1788603467 | 30° C | 37% | 1029.8 hPa | - | - | - | - |
| 1788602263 | 30° C | 38% | 1029.8 hPa | - | - | - | - |
| 1788601060 | 30° C | 38% | 1029.9 hPa | - | - | - | - |
| 1788599856 | 29.44° C | 38% | 1029.9 hPa | - | - | - | - |
| 1788598653 | 29.44° C | 38% | 1029.9 hPa | - | - | - | - |
| 1788597449 | 29.44° C | 39% | 1029.9 hPa | - | - | - | - |
| 1788596246 | 29.44° C | 40% | 1029.8 hPa | - | - | - | - |
| 1788595042 | 28.89° C | 40% | 1029.7 hPa | - | - | - | - |
| 1788593839 | 28.89° C | 40% | 1029.5 hPa | - | - | - | - |
| 1788592635 | 28.33° C | 40% | 1029.5 hPa | - | - | - | - |
| 1788591432 | 28.33° C | 41% | 1029.4 hPa | - | - | - | - |
| 1788590228 | 28.33° C | 42% | 1029.3 hPa | - | - | - | - |
| 1788589025 | 27.78° C | 42% | 1029.2 hPa | - | - | - | - |
| 1788587821 | 27.78° C | 43% | 1029.1 hPa | - | - | - | - |
| 1788586618 | 27.78° C | 43% | 1029.1 hPa | - | - | - | - |
| 1788585415 | 27.78° C | 43% | 1028.9 hPa | - | - | - | - |
| 1788584211 | 27.78° C | 42% | 1028.7 hPa | - | - | - | - |
| 1788583007 | 27.78° C | 42% | 1028.5 hPa | - | - | - | - |
| 1788580601 | 27.78° C | 43% | 1028.3 hPa | - | - | - | - |
| 1788579397 | 27.78° C | 43% | 1028.3 hPa | - | - | - | - |
| 1788578194 | 27.78° C | 43% | 1028.3 hPa | - | - | - | - |
| 1788576990 | 28.33° C | 44% | 1028.3 hPa | - | - | - | - |
| 1788575787 | 28.33° C | 44% | 1028.2 hPa | - | - | - | - |
* Rain since midnight (hover to see other rain measurements)
** Current wind speed in m/s (hover to see current wind gust speed)